Barksdale AFB, LA

11:49 AM CDT on September 19, 2017 (GMT -0500)
Barksdale Air Force Base

Weather History for KBAD - October, 2013

Change the Weather History Date:

Sunday, October 13, 2013

  Actual Average Record
Temperature  
Mean Temperature 71 °F -  
Max Temperature 77 °F 74 °F 89 °F (2015)
Min Temperature 66 °F 53 °F 44 °F (2006)
Cooling Degree Days 6    
Growing Degree Days 21 (Base 50)    
Moisture  
Dew Point 67 °F    
Average Humidity 92    
Maximum Humidity 100    
Minimum Humidity 72    
Precipitation  
Precipitation 0.00 in - - ()
Sea Level Pressure  
Sea Level Pressure 30.15 in    
Wind  
Wind Speed 4 mph (ENE)    
Max Wind Speed 9 mph    
Max Gust Speed -    
Visibility 9 miles    
Events      
Averages and records for this station are not official NWS values.
T = Trace of Precipitation, MM = Missing Value Source: NWS Daily Summary

Daily Weather History Graph

Daily Weather History Graph

Search for Another Location

Airport or City:

Trip Planner

Search our weather history database for the weather conditions in past years. The results will help you decide how hot, cold, wet, or windy it might be!

Date:

Astronomy

Oct. 13, 2013 Rise Set
Actual Time 7:17 AM CDT 6:43 PM CDT
Civil Twilight 6:52 AM CDT 7:08 PM CDT
Nautical Twilight 6:23 AM CDT 7:37 PM CDT
Astronomical Twilight 5:55 AM CDT 8:05 PM CDT
Moon 3:19 PM CDT (10/13) 1:45 AM CDT (10/13)
Length of Visible Light 12h 16m
Length of Day
11h 26m
Waxing Gibbous, 69% of the Moon is Illuminated
Oct 13
Waxing Gibbous
Oct 18
Full
Oct 26
Last Quarter
Nov 3
New
Nov 9
First Quarter

Hourly Weather History & Observations

Time (CDT) Temp. Dew Point Humidity Pressure Visibility Wind Dir Wind Speed Gust Speed Precip Events Conditions
12:08 AM 68.0 °F 68.0 °F 100% 30.07 in 8.0 mi East 2.3 mph - N/A   Clear
12:18 AM 66.2 °F 66.2 °F 100% 30.08 in 4.0 mi ENE 3.5 mph - N/A   Clear
12:28 AM 66.2 °F 66.2 °F 100% 30.08 in 7.0 mi ENE 2.3 mph - N/A   Clear
12:38 AM 66.2 °F 66.2 °F 100% 30.08 in 7.0 mi NE 3.5 mph - N/A   Clear
12:58 AM 66.9 °F 66.9 °F 100% 30.09 in 6.0 mi Calm Calm - N/A   Clear
1:08 AM 66.2 °F 66.2 °F 100% 30.08 in 1.2 mi NE 3.5 mph - N/A   Clear
1:18 AM 66.2 °F 66.2 °F 100% 30.08 in 3.0 mi East 3.5 mph - N/A   Clear
1:38 AM 66.2 °F 66.2 °F 100% 30.07 in 7.0 mi NNE 4.6 mph - N/A   Clear
1:48 AM 66.2 °F 66.2 °F 100% 30.07 in 3.0 mi NNE 4.6 mph - N/A   Clear
1:58 AM 66.6 °F 66.6 °F 100% 30.09 in 8.0 mi NE 3.5 mph - N/A   Clear
2:08 AM 66.2 °F 66.2 °F 100% 30.08 in 10.0 mi NE 4.6 mph - N/A   Clear
2:43 AM 66.2 °F 66.2 °F 100% 30.10 in 10.0 mi NE 2.3 mph - N/A   Partly Cloudy
2:53 AM 66.2 °F 66.2 °F 100% 30.10 in 10.0 mi NE 2.3 mph - N/A   Mostly Cloudy
2:58 AM 66.7 °F 66.7 °F 100% 30.11 in 10.0 mi NE 2.3 mph - N/A   Mostly Cloudy
3:14 AM 68.0 °F 68.0 °F 100% 30.11 in 10.0 mi NE 3.5 mph - N/A   Overcast
3:44 AM 68.0 °F 68.0 °F 100% 30.11 in 10.0 mi NE 4.6 mph - N/A   Overcast
3:58 AM 67.8 °F 67.8 °F 100% 30.12 in 10.0 mi NNE 3.5 mph - N/A   Overcast
4:38 AM 68.0 °F 68.0 °F 100% 30.12 in 10.0 mi NE 3.5 mph - N/A   Overcast
4:58 AM 68.0 °F 68.0 °F 100% 30.14 in 10.0 mi NNE 3.5 mph - N/A   Overcast
5:58 AM 68.2 °F 68.2 °F 100% 30.14 in 10.0 mi East 4.6 mph - N/A   Overcast
6:08 AM 68.0 °F 68.0 °F 100% 30.13 in 10.0 mi NE 3.5 mph - N/A   Overcast
6:28 AM 68.0 °F 68.0 °F 100% 30.14 in 10.0 mi East 6.9 mph - N/A   Overcast
6:38 AM 68.0 °F 68.0 °F 100% 30.14 in 10.0 mi ENE 8.1 mph - N/A   Overcast
6:58 AM 67.6 °F 67.3 °F 99% 30.16 in 10.0 mi NE 6.9 mph - N/A   Overcast
7:18 AM 68.0 °F 66.2 °F 94% 30.15 in 10.0 mi East 6.9 mph - N/A   Overcast
7:48 AM 68.0 °F 68.0 °F 100% 30.17 in 10.0 mi NE 4.6 mph - N/A   Overcast
7:58 AM 67.8 °F 67.3 °F 98% 30.18 in 8.0 mi ENE 5.8 mph - N/A   Overcast
8:58 AM 68.4 °F 68.0 °F 99% 30.21 in 10.0 mi ENE 4.6 mph - N/A   Overcast
9:08 AM 68.0 °F 68.0 °F 100% 30.21 in 10.0 mi Variable 2.3 mph - N/A   Overcast
9:18 AM 68.0 °F 68.0 °F 100% 30.21 in 10.0 mi Variable 4.6 mph - N/A   Overcast
9:38 AM 69.8 °F 68.0 °F 94% 30.21 in 10.0 mi East 2.3 mph - N/A   Overcast
9:48 AM 69.8 °F 68.0 °F 94% 30.21 in 10.0 mi East 4.6 mph - N/A   Mostly Cloudy
9:58 AM 70.0 °F 67.6 °F 92% 30.22 in 10.0 mi ENE 4.6 mph - N/A   Scattered Clouds
10:18 AM 71.6 °F 68.0 °F 88% 30.22 in 10.0 mi ENE 3.5 mph - N/A   Mostly Cloudy
10:28 AM 71.6 °F 68.0 °F 88% 30.23 in 10.0 mi Variable 3.5 mph - N/A   Overcast
10:38 AM 71.6 °F 68.0 °F 88% 30.23 in 10.0 mi NE 5.8 mph - N/A   Overcast
10:58 AM 72.1 °F 68.2 °F 87% 30.23 in 10.0 mi East 6.9 mph - N/A   Overcast
11:48 AM 73.4 °F 68.0 °F 83% 30.22 in 10.0 mi ENE 5.8 mph - N/A   Mostly Cloudy
11:58 AM 73.9 °F 67.8 °F 81% 30.22 in 10.0 mi East 5.8 mph - N/A   Overcast
12:58 PM 75.6 °F 67.5 °F 76% 30.20 in 10.0 mi ENE 9.2 mph - N/A   Overcast
1:58 PM 76.1 °F 67.3 °F 74% 30.17 in 10.0 mi East 8.1 mph - N/A   Overcast
2:58 PM 76.6 °F 67.1 °F 72% 30.16 in 10.0 mi ENE 5.8 mph - N/A   Overcast
3:38 PM 75.2 °F 68.0 °F 78% 30.14 in 10.0 mi East 5.8 mph - N/A   Overcast
3:58 PM 76.1 °F 67.8 °F 75% 30.15 in 10.0 mi ENE 5.8 mph - N/A   Overcast
4:08 PM 75.2 °F 68.0 °F 78% 30.14 in 10.0 mi ENE 8.1 mph - N/A   Overcast
4:18 PM 75.2 °F 68.0 °F 78% 30.14 in 10.0 mi ENE 5.8 mph - N/A   Overcast
4:28 PM 75.2 °F 68.0 °F 78% 30.14 in 10.0 mi ENE 5.8 mph - N/A   Overcast
4:58 PM 76.1 °F 67.1 °F 74% 30.15 in 10.0 mi ENE 8.1 mph - N/A   Mostly Cloudy
5:58 PM 74.1 °F 67.5 °F 80% 30.15 in 10.0 mi ENE 5.8 mph - N/A   Clear
6:58 PM 72.3 °F 67.6 °F 85% 30.17 in 10.0 mi NE 6.9 mph - N/A   Partly Cloudy
7:58 PM 70.5 °F 66.9 °F 88% 30.18 in 10.0 mi NE 6.9 mph - N/A   Clear
8:58 PM 69.6 °F 66.4 °F 89% 30.19 in 10.0 mi ENE 5.8 mph - N/A   Mostly Cloudy
9:58 PM 68.9 °F 65.7 °F 89% 30.19 in 10.0 mi ENE 8.1 mph - N/A   Overcast
10:58 PM 68.4 °F 65.7 °F 91% 30.19 in 10.0 mi NE 3.5 mph - N/A   Mostly Cloudy
11:58 PM 67.8 °F 65.3 °F 92% 30.18 in 10.0 mi Calm Calm - N/A   Overcast